KD4PYR Weather Reports


Display with metric or nautical units.
time (UTC)temp
F
wind
direction
speed
MPH
gust
MPH
rain 1hr
in
rain 24hr
in
rain mn
in
humidity
%
barometer
mb
20260505214847 60 163 4.0 6.0 0.14 0.53 0.53 84 1005.9
20260505213839 59 186 2.0 7.0 0.15 0.51 0.51 84 1006.0
20260505212829 59 186 4.0 8.0 0.16 0.49 0.49 84 1006.1
20260505211847 59 181 4.0 9.0 0.17 0.47 0.47 84 1006.2
20260505210839 59 159 4.0 6.0 0.18 0.44 0.44 84 1006.2
20260505205823 59 173 2.0 7.0 0.19 0.42 0.42 84 1006.4
20260505204823 59 178 3.0 7.0 0.20 0.39 0.39 84 1006.4
20260505203901 59 177 2.0 7.0 0.21 0.36 0.36 84 1006.4
20260505202833 59 180 2.0 12.0 0.23 0.33 0.33 83 1006.5
20260505201849 60 132 2.0 8.0 0.25 0.30 0.30 83 1006.7
20260505200838 60 177 3.0 8.0 0.21 0.26 0.26 83 1006.6
20260505195843 60 159 2.0 7.0 0.17 0.22 0.22 82 1006.7
20260505194846 60 190 3.0 6.0 0.14 0.19 0.19 81 1006.8
20260505193837 61 182 1.0 12.0 0.10 0.15 0.15 80 1006.7
20260505192836 63 161 1.0 6.0 0.05 0.10 0.10 78 1007.0
20260505191828 66 248 4.0 9.0 0.00 0.05 0.05 74 1006.8
20260505190821 67 156 4.0 9.0 0.00 0.05 0.05 71 1006.4
20260505185827 67 180 5.0 11.0 0.00 0.05 0.05 71 1006.5
20260505184847 67 201 4.0 10.0 0.00 0.05 0.05 72 1006.5
20260505183837 67 177 4.0 11.0 0.00 0.05 0.05 71 1006.6
20260505182829 66 184 4.0 9.0 0.00 0.05 0.05 71 1006.7
20260505181908 66 200 7.0 15.0 0.00 0.05 0.05 70 1006.9
20260505180837 67 179 5.0 10.0 0.00 0.05 0.05 71 1006.9
20260505175840 67 161 5.0 13.0 0.00 0.05 0.05 70 1007.0
20260505174822 67 202 4.0 18.0 0.00 0.05 0.05 70 1007.1
20260505173841 67 196 5.0 11.0 0.00 0.05 0.05 70 1007.0
20260505172832 66 200 4.0 8.0 0.00 0.05 0.05 70 1007.2
20260505171825 66 195 4.0 11.0 0.00 0.05 0.05 70 1007.4
20260505170902 66 184 6.0 13.0 0.00 0.05 0.05 69 1007.5
20260505165823 66 190 7.0 12.0 0.00 0.05 0.05 69 1007.4
20260505164826 66 201 4.0 9.0 0.00 0.05 0.05 70 1007.3
20260505163846 66 163 5.0 10.0 0.00 0.05 0.05 69 1007.3
20260505162836 65 200 6.0 15.0 0.00 0.05 0.05 70 1007.4
20260505161832 65 199 6.0 17.0 0.00 0.05 0.05 69 1007.4
20260505160822 65 196 5.0 10.0 0.01 0.05 0.05 69 1007.4
20260505152840 65 165 7.0 15.0 0.01 0.05 0.05 69 1007.1
20260505151831 64 191 4.0 13.0 0.00 0.04 0.04 71 1007.1
20260505150850 64 119 6.0 13.0 0.00 0.04 0.04 71 1007.0
20260505124901 57 173 2.0 3.0 0.00 0.04 0.04 83 1007.2
20260505123834 57 173 1.0 5.0 0.00 0.04 0.04 83 1007.1
20260505122855 56 167 3.0 6.0 0.00 0.04 0.04 83 1007.0
20260505121828 56 198 2.0 7.0 0.00 0.04 0.04 83 1007.1
20260505120822 56 191 2.0 7.0 0.00 0.04 0.04 83 1007.0
20260505115854 56 189 3.0 7.0 0.00 0.04 0.04 83 1007.1
20260505114836 56 182 3.0 7.0 0.00 0.04 0.04 83 1007.3
20260505113832 56 178 3.0 7.0 0.00 0.04 0.04 83 1007.3
20260505112852 56 186 1.0 8.0 0.00 0.04 0.04 83 1007.1
20260505111845 56 181 2.0 6.0 0.01 0.04 0.04 82 1007.2
20260505110836 56 184 2.0 6.0 0.02 0.04 0.04 82 1007.0
20260505101816 58 290 1.0 6.0 0.03 0.03 0.03 79 1007.5
20260505100854 59 286 0.0 7.0 0.02 0.02 0.02 78 1007.5
20260505095838 61 285 2.0 10.0 0.01 0.01 0.01 77 1007.6
20260505094840 62 334 3.0 9.0 0.00 0.00 0.00 69 1007.5
20260505093815 63 150 1.0 5.0 0.00 0.00 0.00 67 1007.1
20260505092833 63 159 2.0 6.0 0.00 0.00 0.00 66 1006.8
20260505091826 63 178 1.0 7.0 0.00 0.00 0.00 66 1006.5
20260505090815 63 182 3.0 10.0 0.00 0.00 0.00 65 1006.1
20260505085838 63 188 3.0 7.0 0.00 0.00 0.00 65 1005.9
20260505084908 63 178 2.0 14.0 0.00 0.00 0.00 64 1005.8
20260505083838 63 182 3.0 10.0 0.00 0.00 0.00 64 1005.7
20260505082830 63 172 3.0 9.0 0.00 0.00 0.00 64 1005.5
20260505081909 64 199 4.0 9.0 0.00 0.00 0.00 64 1005.1
20260505080840 64 161 2.0 10.0 0.00 0.00 0.00 63 1004.9
20260505075824 64 216 4.0 9.0 0.00 0.00 0.00 63 1004.9
20260505074828 64 169 4.0 10.0 0.00 0.00 0.00 63 1004.9
20260505073849 64 144 4.0 11.0 0.00 0.00 0.00 64 1004.9
20260505072847 64 180 4.0 9.0 0.00 0.00 0.00 63 1004.8
20260505071834 64 176 4.0 10.0 0.00 0.00 0.00 63 1004.7
20260505070824 64 173 4.0 11.0 0.00 0.00 0.00 63 1004.7
20260505065828 64 171 3.0 11.0 0.00 0.00 0.00 63 1004.9
20260505064833 64 184 4.0 7.0 0.00 0.00 0.00 63 1005.0
20260505063826 64 186 4.0 9.0 0.00 0.00 0.00 63 1005.0
20260505062845 64 189 3.0 10.0 0.00 0.00 0.00 63 1004.9
20260505061840 64 165 4.0 12.0 0.00 0.00 0.00 63 1004.9
20260505060832 64 182 4.0 9.0 0.00 0.00 0.00 63 1004.9
20260505055859 64 173 4.0 10.0 0.00 0.00 0.00 63 1004.7
20260505054840 64 180 4.0 8.0 0.00 0.00 0.00 62 1004.6
20260505053829 64 172 4.0 7.0 0.00 0.00 0.00 63 1004.5
20260505052908 64 180 3.0 10.0 0.00 0.00 0.00 63 1004.5
20260505051838 65 169 4.0 8.0 0.00 0.00 0.00 62 1004.5
20260505050830 65 165 4.0 8.0 0.00 0.00 0.00 62 1004.6
20260505040900 66 194 3.0 10.0 0.00 0.00 0.00 62 1005.0
20260505035822 65 195 3.0 5.0 0.00 0.00 0.00 63 1005.1
20260505034855 65 183 4.0 7.0 0.00 0.00 0.00 63 1005.1
20260505033828 65 184 3.0 5.0 0.00 0.00 0.00 64 1005.1
20260505032840 65 182 2.0 7.0 0.00 0.00 0.00 64 1005.1
20260505031838 66 180 2.0 7.0 0.00 0.00 0.00 63 1005.0
20260505030829 66 162 3.0 5.0 0.00 0.00 0.00 63 1004.9
20260505025834 66 171 3.0 5.0 0.00 0.00 0.00 63 1004.9
20260505024815 66 155 3.0 7.0 0.00 0.00 0.00 62 1004.7
20260505023832 67 165 3.0 6.0 0.00 0.00 0.00 62 1004.6
20260505022825 67 146 2.0 5.0 0.00 0.00 0.00 62 1004.5
20260505021816 67 198 3.0 7.0 0.00 0.00 0.00 62 1004.4
20260505020852 67 192 3.0 6.0 0.00 0.00 0.00 61 1004.3
20260505015814 67 173 3.0 7.0 0.00 0.00 0.00 61 1004.0
20260505014839 68 173 2.0 6.0 0.00 0.00 0.00 60 1003.7
20260505013832 68 170 2.0 6.0 0.00 0.00 0.00 60 1003.7
20260505012826 68 175 2.0 8.0 0.00 0.00 0.00 60 1003.7
20260505011816 68 192 2.0 5.0 0.00 0.00 0.00 59 1003.7
20260505010835 69 188 2.0 6.0 0.00 0.00 0.00 59 1003.6
20260505005820 69 180 2.0 8.0 0.00 0.01 0.00 59 1003.5
20260505004912 69 177 2.0 5.0 0.00 0.01 0.00 59 1003.6
20260505003843 70 190 1.0 7.0 0.00 0.01 0.00 58 1003.5
20260505002833 70 201 3.0 10.0 0.00 0.01 0.00 58 1003.6
20260505001826 71 189 3.0 7.0 0.00 0.01 0.00 57 1003.8
20260505000844 71 194 3.0 10.0 0.00 0.01 0.00 56 1003.8
20260504235827 71 190 4.0 7.0 0.00 0.01 0.00 55 1003.9
20260504234850 71 183 3.0 7.0 0.00 0.01 0.00 55 1004.0
20260504233843 72 183 2.0 6.0 0.00 0.01 0.00 55 1004.1
20260504232836 72 169 4.0 13.0 0.00 0.01 0.00 53 1004.3
20260504231829 72 159 4.0 8.0 0.00 0.01 0.00 52 1004.5
20260504230846 73 162 3.0 11.0 0.00 0.01 0.00 51 1004.5
20260504225850 73 169 7.0 14.0 0.00 0.01 0.00 50 1004.6
20260504224830 73 169 4.0 12.0 0.00 0.01 0.00 50 1004.6
20260504223851 73 144 5.0 12.0 0.00 0.01 0.00 50 1004.6
20260504222851 74 190 5.0 12.0 0.00 0.01 0.00 49 1004.7
20260504221841 74 180 4.0 12.0 0.00 0.01 0.00 49 1004.8
20260504220831 74 173 6.0 17.0 0.00 0.01 0.00 48 1004.7
20260504215833 74 194 5.0 13.0 0.00 0.01 0.00 49 1004.8